Regional Weather Roundup
Issued by NWS

Home | Current Version | Previous Version | Graphics & Text | Print | Product List | Glossary On
Versions: 1 2 3 4 5 6 7 8 9 10 11 12 13 14 15 16 17 18 19 20 21 22 23 24 25 26 27 28 29 30 31 32 33 34 35 36 37 38 39 40 41 42 43 44 45 46 47 48 49 50
000
ASUS43 KMKX 301811
RWRWI

WISCONSIN REGIONAL WEATHER ROUNDUP
NATIONAL WEATHER SERVICE MILWAUKEE/SULLIVAN WI
100 PM CDT SAT AUG 30 2014

NOTE: "FAIR" INDICATES FEW OR NO CLOUDS BELOW 12,000 FEET WITH NO
SIGNIFICANT WEATHER AND/OR OBSTRUCTIONS TO VISIBILITY.

WIZ001-002-006>008-014>016-023>028-301900-
NORTHWEST WISCONSIN

CITY           SKY/WX    TMP DP  RH WIND       PRES   REMARKS
SUPERIOR ARPT  LGT RAIN  64  61  92 CALM      29.87S
6HR MIN TEMP:  60; 6HR MAX TEMP:  66;

ASHLAND        CLOUDY    64  59  83 NE10      29.87S
6HR MIN TEMP:  61; 6HR MAX TEMP:  64;

HAYWARD        CLOUDY    64  60  87 N6        29.86S
6HR MIN TEMP:  61; 6HR MAX TEMP:  64; 6HR PCP:  0.01;

SIREN          CLOUDY    67  59  77 NE9       29.87S
6HR MIN TEMP:  62; 6HR MAX TEMP:  67;

RICE LAKE      CLOUDY    65  61  87 N9        29.86S
6HR MIN TEMP:  64; 6HR MAX TEMP:  65;

LADYSMITH      CLOUDY    65  61  88 N9        29.85S
6HR MIN TEMP:  64; 6HR MAX TEMP:  65; 6HR PCP:  0.04;

EAU CLAIRE     CLOUDY    69  65  86 NW9       29.82R
6HR MIN TEMP:  66; 6HR MAX TEMP:  74; 6HR PCP:  0.03;

MENOMONIE      CLOUDY    70  64  81 N10       29.83S
6HR MIN TEMP:  66; 6HR MAX TEMP:  71;

NEW RICHMOND   CLOUDY    66  62  87 NW3       29.86S
6HR MIN TEMP:  64; 6HR MAX TEMP:  68;

OSCEOLA        CLOUDY    66  64  93 N7        29.89R
6HR MIN TEMP:  64; 6HR MAX TEMP:  67;

$$

WIZ003>005-009-010-017-018-301900-
NORTH CENTRAL WISCONSIN

CITY           SKY/WX    TMP DP  RH WIND       PRES   REMARKS
WOODRUFF       CLOUDY    62  60  92 N9        29.83R
6HR MIN TEMP:  62; 6HR MAX TEMP:  65;

RHINELANDER    CLOUDY    64  62  93 N7        29.81R
6HR MIN TEMP:  63; 6HR MAX TEMP:  68; 6HR PCP:  0.06;

EAGLE RIVER    LGT RAIN  63  63 100 N9        29.81S
LAND O LAKES   LGT RAIN  60  59  97 N8        29.83S
6HR MIN TEMP:  60; 6HR MAX TEMP:  65; 6HR PCP:  0.04;

PHILLIPS       CLOUDY    62  60  93 N6        29.83R
6HR MIN TEMP:  62; 6HR MAX TEMP:  64; 6HR PCP:  0.04;

TOMAHAWK       CLOUDY    65  61  89 NW7       29.82R
6HR MIN TEMP:  63; 6HR MAX TEMP:  68;

MEDFORD        CLOUDY    68  63  86 NW7       29.81S
6HR MIN TEMP:  64; 6HR MAX TEMP:  69;

MERRILL        CLOUDY    71  65  81 NW10      29.79S
6HR MIN TEMP:  64; 6HR MAX TEMP:  72;

$$

WIZ029-030-035-036-043>047-301900-
CENTRAL WISCONSIN

CITY           SKY/WX    TMP DP  RH WIND       PRES   REMARKS
WAUSAU         CLOUDY    72  66  81 NW8       29.77S
6HR MIN TEMP:  65; 6HR MAX TEMP:  72; 6HR PCP:  0.08;

MOSINEE        RAIN      70  68  94 NW5       29.80S
MARSHFIELD     CLOUDY    73  66  78 NW12      29.80R
6HR MIN TEMP:  65; 6HR MAX TEMP:  74;

STEVENS POINT  CLOUDY    69  66  89 SW5       29.79S
6HR MIN TEMP:  64; 6HR MAX TEMP:  70; 6HR PCP:  0.22;

WAUPACA        CLOUDY    78  66  68 NW7       29.77S
6HR MIN TEMP:  69; 6HR MAX TEMP:  78;

WAUTOMA        LGT RAIN  73  70  88 W7        29.79S
6HR MIN TEMP:  69; 6HR MAX TEMP:  76; 6HR PCP: TRACE;

WISC RAPIDS    CLOUDY    73  68  84 W9        29.80S
6HR MIN TEMP:  66; 6HR MAX TEMP:  74; 6HR PCP:  0.13;

CAMP DOUGLAS   PTSUNNY   73  73 100 VRB6      29.80F
                                      6HR PCP:  0.64;

$$

WIZ011>013-019>022-031-037>040-048>050-301900-
NORTHEAST WISCONSIN

CITY           SKY/WX    TMP DP  RH WIND       PRES   REMARKS
ANTIGO         CLOUDY    70  65  84 NW12      29.79R
6HR MIN TEMP:  63; 6HR MAX TEMP:  71; 6HR PCP:  0.06;

STURGEON BAY   CLOUDY    73  68  83 SW9       29.73S
6HR MIN TEMP:  66; 6HR MAX TEMP:  75;

GREEN BAY      CLOUDY    75  69  81 NW10      29.75R
6HR MIN TEMP:  68; 6HR MAX TEMP:  75; 6HR PCP: TRACE;

MANITOWOC      LGT RAIN  73  69  87 SW8       29.76R
6HR MIN TEMP:  69; 6HR MAX TEMP:  78; 6HR PCP:  0.10;

APPLETON       PTSUNNY   73  64  73 NW13      29.77S
CLINTONVILLE   CLOUDY    73  64  73 NW9       29.76S
OSHKOSH        PTSUNNY   74  67  78 W3        29.76S
6HR MIN TEMP:  70; 6HR MAX TEMP:  75; 6HR PCP:  0.05;

$$

WIZ032>034-041-042-053>061-301900-
SOUTHWEST WISCONSIN

CITY           SKY/WX    TMP DP  RH WIND       PRES   REMARKS
LA CROSSE      PTSUNNY   77  66  68 NW9       29.81R
6HR MIN TEMP:  69; 6HR MAX TEMP:  79; 6HR PCP:  0.01;

SPARTA         PTSUNNY   74  64  69 W6        29.82R
6HR MIN TEMP:  66; 6HR MAX TEMP:  75; 6HR PCP:  0.49;

VIROQUA        CLOUDY    73  69  86 W6        29.84R
6HR MIN TEMP:  66; 6HR MAX TEMP:  74; 6HR PCP:  0.02;

BOSCOBEL       CLOUDY    78  67  68 VRB6      29.82S HX  80
6HR MIN TEMP:  70; 6HR MAX TEMP:  78; 6HR PCP:  0.05;

PRAIRIE DU CHI PTSUNNY   75  66  73 NW7       29.83R
PLATTEVILLE    CLOUDY    75  69  82 W13       29.86R
6HR MIN TEMP:  68; 6HR MAX TEMP:  75; 6HR PCP:  0.29;

$$

WIZ056-057-062-063-064-067-068-301900-
SOUTH CENTRAL WISCONSIN

CITY           SKY/WX    TMP DP  RH WIND       PRES   REMARKS
BARABOO/DELLS  RAIN      69  66  89 W3        29.80S
6HR MIN TEMP:  68; 6HR MAX TEMP:  72; 6HR PCP:  0.10;

LONE ROCK      LGT RAIN  79  69  71 W14       29.81R HX  81
6HR MIN TEMP:  73; 6HR MAX TEMP:  79; 6HR PCP:  0.06;

WATERTOWN      CLOUDY    73  67  81 SW13G18   29.79S
6HR MIN TEMP:  69; 6HR MAX TEMP:  76;

MADISON        PTSUNNY   75  68  78 SW6       29.80S
6HR MIN TEMP:  69; 6HR MAX TEMP:  76; 6HR PCP:  0.11;

MIDDLETON      CLOUDY    76  70  82 W12G18    29.81R
6HR MIN TEMP:  69; 6HR MAX TEMP:  77; 6HR PCP:  0.17;

MONROE         LGT RAIN  70  68  94 W16G22    29.84R
JANESVILLE     CLOUDY    77  64  65 SW13G21   29.82R
$$

WIZ051-052-058>065-066-070>072-301900-
SOUTHEAST WISCONSIN

CITY           SKY/WX    TMP DP  RH WIND       PRES   REMARKS
MILWAUKEE      PTSUNNY   75  67  76 SW16G28   29.81R
6HR MIN TEMP:  70; 6HR MAX TEMP:  78; 6HR PCP:  0.54;

WAUKESHA       CLOUDY    70  66  88 SW12      29.81S
MILWAUKEE/TIMM PTSUNNY   73  64  73 SW13G20   29.80S
RACINE         CLOUDY    77  66  68 SW20G28   29.82R
6HR MIN TEMP:  72; 6HR MAX TEMP:  81; 6HR PCP: TRACE;

BURLINGTON     PTSUNNY   74  65  74 SW17G24   29.82S
6HR MIN TEMP:  68; 6HR MAX TEMP:  74; 6HR PCP:  0.02;

KENOSHA        CLOUDY    75  66  73 W21G29    29.82R
6HR MIN TEMP:  71; 6HR MAX TEMP:  79;

FOND DU LAC    LGT RAIN  71  68  90 SW9       29.78S
6HR MIN TEMP:  70; 6HR MAX TEMP:  75; 6HR PCP:  0.27;

SHEBOYGAN      LGT RAIN  74  66  76 SW15      29.77S
6HR MIN TEMP:  70; 6HR MAX TEMP:  80; 6HR PCP: TRACE;

WEST BEND      PTSUNNY   77  64  65 SW13G20   29.78S
JUNEAU         CLOUDY    71  67  88 SW12G18   29.80F
6HR MIN TEMP:  67; 6HR MAX TEMP:  73; 6HR PCP:  0.34;

$$

LSZ147-162-301900-
LAKE SUPERIOR

STATION/POSITION TIME  TEMP    WIND        PRES    WAVE
                       AIR SEA DIR/SP/G            HT/PER
                 (UTC) (F)     (DEG/KT/KT) (MB)    (FT/S)
W MID LAKE BUOY  1750   59 57   10/  8/  8 1010.9R   1
DEVILS ISLAND    1800   61      CALM  /  1 1011.6R
PORT WING        1740   65      10/  3/  4 1011.5S
SAXON HARBOR     1700   62      40/  7/ 11 1011.5R
$$

LMZ867-665-643>646-301900-
LAKE MICHIGAN

STATION/POSITION TIME  TEMP    WIND        PRES    WAVE
                       AIR SEA DIR/SP/G            HT/PER
                 (UTC) (F)     (DEG/KT/KT) (MB)    (FT/S)
N MID LAKE BUOY  1750   67 65  190/ 16/ 17 1006.4F   4/ 6
NORTHPORT PIER   1700   70     190/  5/ 14 1006.8F
SISTER BAY       1726   69     180/ 11/ 13   N/A
KEWAUNEE LAKESHO 1700   63     180/ 11/ 14 1006.4F
SHEBOYGAN LAKESH 1800   72 58  240/  7/ 13 1007.6F
ATWATER BUOY     1800   67     240/ 16/ 19 1010.1R
MILWAUKEE LAKESH 1700   71     220/ 14/ 17   N/A
S MID LAKE BUOY  1750   72 69  190/ 17/ 21   N/A
KENOSHA   LAKESH 1800   78     240/ 14/ 23 1009.1S
$$

TC  - TEMPERATURE IN CELSIUS
VSB - VISIBILITY IN STATUTE MILES
WCI - WIND CHILL INDEX
HX  - HEAT INDEX




USA.gov is the U.S. government's official web portal to all federal, state and local government web resources and services.